Weather History for Juneau, WI

Change the Weather History Date:

Wednesday, January 30, 2013

  Actual Average Record
Temperature  
Mean Temperature 24 °F -  
Max Temperature 33 °F 26 °F 47 °F (1988)
Min Temperature 15 °F 15 °F -15 °F (1991)
Degree Days  
Heating Degree Days 41    
Moisture  
Dew Point 25 °F    
Average Humidity 93    
Maximum Humidity 100    
Minimum Humidity 73    
Precipitation  
Precipitation 0.07 in - - ()
Sea Level Pressure  
Sea Level Pressure 29.40 in    
Wind  
Wind Speed 13 mph (NNW)    
Max Wind Speed 20 mph    
Max Gust Speed 26 mph    
Visibility 4 miles    
Events Rain , Snow    
Averages and records for this station are not official NWS values.
T = Trace of Precipitation, MM = Missing Value Source: NWS Daily Summary

Daily Weather History Graph

Daily Weather History Graph

Search for Another Location

Airport:

Trip Planner

Search our weather history database for the weather conditions in past years. The results will help you decide how hot, cold, wet, or windy it might be!

Date:

Astronomy

Jan. 30, 2013 Rise Set
Actual Time 7:12 AM CST 5:04 PM CST
Civil Twilight 6:42 AM CST 5:34 PM CST
Nautical Twilight 6:07 AM CST 6:09 PM CST
Astronomical Twilight 5:34 AM CST 6:42 PM CST
Moon 9:11 PM CST (1/30) 8:32 AM CST (1/30)
Length of Visible Light 10h 52m
Length of Day
9h 51m
Waning Gibbous, 87% of the Moon is Illuminated
Jan 30
Waning Gibbous
Feb 3
Last Quarter
Feb 10
New
Feb 17
First Quarter
Feb 25
Full

Hourly Weather History & Observations

Time (CST) Temp. Windchill Dew Point Humidity Pressure Visibility Wind Dir Wind Speed Gust Speed Precip Events Conditions
12:35 AM 33.8 °F 23.5 °F 33.8 °F 100% 29.45 in 5.0 mi North 16.1 mph 21.9 mph 0.01 in   Drizzle
12:55 AM 33.8 °F 23.9 °F 33.8 °F 100% 29.46 in 5.0 mi North 15.0 mph 23.0 mph 0.01 in Rain Light Rain
1:15 AM 33.8 °F 25.3 °F 33.8 °F 100% 29.47 in 7.0 mi North 11.5 mph - N/A Rain Rain
1:35 AM 33.8 °F 23.9 °F 33.8 °F 100% 29.46 in 7.0 mi North 15.0 mph 18.4 mph N/A Rain Light Rain
1:55 AM 32.0 °F 22.1 °F 32.0 °F 100% 29.43 in 5.0 mi North 13.8 mph 18.4 mph 0.01 in Rain Light Rain
2:15 AM 32.0 °F 21.2 °F 32.0 °F 100% 29.43 in 10.0 mi North 16.1 mph 19.6 mph N/A   Light Drizzle
2:55 AM 32.0 °F 23.0 °F 32.0 °F 100% 29.44 in 10.0 mi North 11.5 mph 20.7 mph N/A   Overcast
3:15 AM 32.0 °F 22.1 °F 32.0 °F 100% 29.45 in 4.0 mi North 13.8 mph 17.3 mph N/A   Overcast
3:35 AM 32.0 °F 22.1 °F 32.0 °F 100% 29.47 in 1.8 mi North 13.8 mph 20.7 mph N/A Snow Light Snow
3:55 AM 32.0 °F 22.1 °F 32.0 °F 100% 29.42 in 2.5 mi North 13.8 mph 19.6 mph 0.01 in Snow Light Snow
4:15 AM 32.0 °F 22.5 °F 32.0 °F 100% 29.45 in 5.0 mi North 12.7 mph 18.4 mph N/A   Scattered Clouds
4:35 AM 32.0 °F 25.6 °F 32.0 °F 100% 29.45 in 7.0 mi North 6.9 mph - N/A   Mostly Cloudy
4:55 AM 32.0 °F 23.0 °F 32.0 °F 100% 29.40 in 4.0 mi North 11.5 mph - 0.01 in Snow Light Snow
5:15 AM 32.0 °F 24.2 °F 32.0 °F 100% 29.38 in 5.0 mi North 9.2 mph - N/A Snow Light Snow
5:35 AM 32.0 °F 23.6 °F 32.0 °F 100% 29.39 in 5.0 mi North 10.4 mph - N/A   Overcast
5:55 AM 32.0 °F 24.2 °F 32.0 °F 100% 29.40 in 5.0 mi North 9.2 mph - N/A   Overcast
6:15 AM 32.0 °F 23.6 °F 32.0 °F 100% 29.39 in 4.0 mi North 10.4 mph - N/A Snow Light Snow
6:35 AM 32.0 °F 23.6 °F 32.0 °F 100% 29.37 in 2.0 mi North 10.4 mph - N/A Snow Light Snow
6:55 AM 32.0 °F 23.6 °F 32.0 °F 100% 29.38 in 1.2 mi North 10.4 mph - N/A Snow Light Snow
7:15 AM 32.0 °F 22.5 °F 32.0 °F 100% 29.36 in 2.5 mi North 12.7 mph - N/A Snow Light Snow
7:35 AM 32.0 °F 24.2 °F 32.0 °F 100% 29.35 in 3.0 mi North 9.2 mph - N/A Snow Light Snow
7:55 AM 32.0 °F 24.2 °F 32.0 °F 100% 29.36 in 3.0 mi North 9.2 mph 16.1 mph N/A Snow Light Snow
8:15 AM 32.0 °F 21.6 °F 32.0 °F 100% 29.35 in 1.2 mi North 15.0 mph - N/A Snow Light Snow
8:35 AM 32.0 °F 22.5 °F 32.0 °F 100% 29.38 in 1.0 mi North 12.7 mph 20.7 mph N/A Snow Light Snow
8:55 AM 32.0 °F 21.2 °F 32.0 °F 100% 29.34 in 0.8 mi North 16.1 mph 21.9 mph 0.01 in Snow Light Snow
9:15 AM 30.2 °F 19.8 °F 30.2 °F 100% 29.34 in 0.2 mi North 13.8 mph 19.6 mph N/A Snow Snow
9:35 AM 30.2 °F 20.2 °F 30.2 °F 100% 29.33 in 0.8 mi North 12.7 mph - N/A Snow Light Snow
9:55 AM 30.2 °F 19.8 °F 30.2 °F 100% 29.31 in 0.8 mi North 13.8 mph 19.6 mph 0.01 in Snow Light Snow
10:15 AM 30.2 °F 22.6 °F 30.2 °F 100% 29.32 in 0.5 mi North 8.1 mph 19.6 mph N/A Snow Snow
10:35 AM 30.2 °F 19.8 °F 30.2 °F 100% 29.33 in 0.2 mi North 13.8 mph 20.7 mph 0.01 in Snow Snow
10:55 AM 30.2 °F 22.6 °F 30.2 °F 100% 29.35 in 0.5 mi North 8.1 mph - 0.01 in Snow Snow
11:15 AM 30.2 °F 19.8 °F 30.2 °F 100% 29.33 in 0.2 mi North 13.8 mph 19.6 mph N/A Snow Snow
11:35 AM 30.2 °F 19.3 °F 30.2 °F 100% 29.33 in 0.5 mi NNW 15.0 mph 19.6 mph N/A Snow Light Snow
11:55 AM 30.2 °F 19.3 °F 30.2 °F 100% 29.33 in 0.8 mi North 15.0 mph - N/A Snow Light Snow
12:15 PM 28.4 °F 16.2 °F 28.4 °F 100% 29.32 in 0.8 mi North 17.3 mph - N/A Snow Light Snow
12:35 PM 28.4 °F 18.0 °F 28.4 °F 100% 29.31 in 1.2 mi North 12.7 mph - N/A Snow Light Snow
12:55 PM 28.4 °F 15.4 °F 28.4 °F 100% 29.30 in 1.0 mi NNW 19.6 mph 26.5 mph N/A Snow Light Snow
1:15 PM 28.4 °F 17.5 °F 26.6 °F 93% 29.31 in 1.8 mi NNW 13.8 mph - N/A Snow Light Snow
1:35 PM 28.4 °F 17.0 °F 26.6 °F 93% 29.31 in 1.2 mi NNW 15.0 mph - N/A Snow Light Snow
1:55 PM 28.4 °F 16.2 °F 26.6 °F 93% 29.31 in 1.0 mi NNW 17.3 mph - N/A Snow Light Snow
2:15 PM 28.4 °F 19.1 °F 26.6 °F 93% 29.31 in 1.0 mi NNW 10.4 mph - N/A Snow Light Snow
2:35 PM 28.4 °F 19.1 °F 26.6 °F 93% 29.32 in 1.0 mi NNW 10.4 mph 17.3 mph N/A Snow Light Snow
2:55 PM 26.6 °F 14.7 °F 24.8 °F 93% 29.32 in 1.8 mi NNW 15.0 mph 24.2 mph N/A Snow Light Snow
3:15 PM 26.6 °F 16.8 °F 24.8 °F 93% 29.33 in 2.0 mi NNW 10.4 mph 20.7 mph N/A Snow Light Snow
3:35 PM 28.4 °F 18.0 °F 26.6 °F 93% 29.34 in 1.2 mi NW 12.7 mph 19.6 mph N/A Snow Light Snow
3:55 PM 26.6 °F 15.7 °F 23.0 °F 86% 29.34 in 2.0 mi NNW 12.7 mph 19.6 mph N/A Snow Light Snow
4:15 PM 26.6 °F 15.2 °F 24.8 °F 93% 29.35 in 0.8 mi NW 13.8 mph 18.4 mph N/A Snow Light Snow
4:35 PM 26.6 °F 15.2 °F 26.6 °F 100% 29.35 in 0.8 mi NW 13.8 mph 17.3 mph N/A Snow Light Snow
4:55 PM 26.6 °F 17.5 °F 24.8 °F 93% 29.37 in 1.5 mi WNW 9.2 mph 18.4 mph N/A Snow Light Snow
5:15 PM 24.8 °F 12.9 °F 23.0 °F 93% 29.38 in 2.5 mi NW 13.8 mph 20.7 mph N/A Snow Light Snow
5:35 PM 24.8 °F 12.9 °F 23.0 °F 93% 29.39 in 1.8 mi NW 13.8 mph 19.6 mph N/A Snow Light Snow
5:55 PM 24.8 °F 16.1 °F 23.0 °F 93% 29.41 in 1.2 mi West 8.1 mph 23.0 mph N/A Snow Light Snow
6:15 PM 23.0 °F 10.1 °F 19.4 °F 86% 29.42 in 2.5 mi WNW 15.0 mph 23.0 mph N/A Snow Light Snow
6:35 PM 21.2 °F 10.9 °F 17.6 °F 86% 29.43 in 3.0 mi WNW 9.2 mph 21.9 mph N/A Snow Light Snow
6:55 PM 21.2 °F 8.3 °F 15.8 °F 80% 29.44 in 4.0 mi WNW 13.8 mph 21.9 mph N/A Snow Light Snow
7:15 PM 21.2 °F 11.7 °F 14.0 °F 74% 29.45 in 10.0 mi West 8.1 mph 20.7 mph N/A Snow Light Snow
7:35 PM 19.4 °F 6.6 °F 14.0 °F 80% 29.45 in 7.0 mi WNW 12.7 mph 24.2 mph N/A Snow Light Snow
7:55 PM 19.4 °F 7.9 °F 14.0 °F 80% 29.46 in 5.0 mi West 10.4 mph 23.0 mph N/A Snow Light Snow
8:15 PM 19.4 °F 7.2 °F 14.0 °F 80% 29.47 in 10.0 mi WNW 11.5 mph 17.3 mph N/A Snow Light Snow
8:35 PM 19.4 °F 6.6 °F 14.0 °F 80% 29.48 in 5.0 mi West 12.7 mph 18.4 mph N/A Snow Light Snow
8:55 PM 17.6 °F 2.7 °F 12.2 °F 79% 29.49 in 7.0 mi WNW 16.1 mph 23.0 mph N/A Snow Light Snow
9:15 PM 17.6 °F 5.7 °F 12.2 °F 79% 29.50 in 10.0 mi West 10.4 mph 17.3 mph N/A   Mostly Cloudy
9:35 PM 17.6 °F 4.3 °F 10.4 °F 73% 29.50 in 5.0 mi WNW 12.7 mph 19.6 mph N/A   Haze
9:55 PM 15.8 °F 2.7 °F 10.4 °F 79% 29.52 in 7.0 mi West 11.5 mph 19.6 mph N/A Snow Light Snow
10:15 PM 15.8 °F 4.2 °F 10.4 °F 79% 29.53 in 10.0 mi WNW 9.2 mph 20.7 mph N/A   Overcast
10:35 PM 15.8 °F 2.7 °F 10.4 °F 79% 29.54 in 10.0 mi West 11.5 mph 19.6 mph N/A   Overcast
10:55 PM 15.8 °F 1.4 °F 10.4 °F 79% 29.54 in 10.0 mi West 13.8 mph 18.4 mph N/A   Overcast
11:15 PM 15.8 °F 3.4 °F 10.4 °F 79% 29.55 in 7.0 mi West 10.4 mph 20.7 mph N/A   Overcast
11:35 PM 15.8 °F 2.7 °F 8.6 °F 73% 29.56 in 10.0 mi West 11.5 mph 19.6 mph N/A   Overcast
11:55 PM 15.8 °F 3.4 °F 8.6 °F 73% 29.57 in 10.0 mi West 10.4 mph 17.3 mph N/A   Overcast